Location: Donald C. Martin Observatory
(38.3885°N, 82.3916°W)
Time: 17:42:07
(UTC-05:00)

Cosmos 1484 Rocket - Visible Passes

Search period start: 01 February 2015 00:00
Search period end: 11 February 2015 00:00
Orbit: 514 x 570 km, 97.4° (Epoch: 01 February)

Date Brightness Start Highest point End Pass type
(mag) Time Alt. Az. Time Alt. Az. Time Alt. Az.
01 Feb 4.0 18:51:36 10° ESE 18:54:43 23° ENE 18:57:58 10° NNE visible
01 Feb 5.0 20:25:50 10° SSW 20:29:14 25° W 20:32:37 10° NW visible
02 Feb 4.2 18:45:06 10° ESE 18:47:56 19° ENE 18:50:53 10° NNE visible
02 Feb 4.7 20:18:45 10° SSW 20:22:21 30° W 20:25:57 10° NW visible
03 Feb 4.4 18:38:40 10° ESE 18:41:08 16° ENE 18:43:44 10° NNE visible
03 Feb 4.3 20:11:43 10° SSW 20:15:28 36° W 20:19:15 10° NNW visible
04 Feb 4.6 18:32:22 10° E 18:34:20 14° ENE 18:36:30 10° NE visible
04 Feb 3.9 20:04:42 10° S 20:08:36 44° W 20:12:30 10° NNW visible
05 Feb 4.8 18:26:16 10° E 18:27:32 11° ENE 18:29:01 10° NE visible
05 Feb 3.5 19:57:45 10° S 20:01:43 54° W 20:05:43 10° NNW visible
06 Feb 3.2 19:50:49 10° S 19:54:50 67° W 19:58:54 10° NNW visible
07 Feb 2.9 19:43:55 10° S 19:47:58 81° W 19:52:03 10° NNW visible
08 Feb 2.7 19:37:02 10° SSE 19:41:05 83° ENE 19:45:10 10° N visible
09 Feb 2.7 19:30:11 10° SSE 19:34:13 68° ENE 19:38:15 10° N visible
10 Feb 2.9 19:23:22 10° SSE 19:27:20 55° ENE 19:31:18 10° N visible
10 Feb 6.2 21:01:50 10° W 21:02:21 10° W 21:02:35 10° W visible
